| time (UTC) | temp C | wind direction | speed KPH | gust KPH | rain 1hr cm | rain 24hr cm | rain mn cm | humidity % | barometer mb |
| 20260906022310 | 30 | 212 | 4.8 | 8.0 | 0.00 | 0.00 | 0.00 | 69 | 1015.6 |
| 20260906021251 | 30 | 3.2 | 3.2 | 0.00 | 0.00 | 0.00 | 68 | 1015.5 | |
| 20260906020253 | 30 | 197 | 4.8 | 8.0 | 0.00 | 0.00 | 0.00 | 66 | 1015.4 |
| 20260906015336 | 30 | 180 | 3.2 | 3.2 | 0.00 | 0.00 | 0.00 | 64 | 1015.3 |
| 20260906014317 | 30 | 139 | 3.2 | 4.8 | 0.00 | 0.00 | 0.00 | 63 | 1015.1 |
| 20260906013259 | -17 | 0.0 | 0.0 | 0.00 | 0.00 | 0.00 | 1015.0 | ||
| 20260906012301 | -17 | 0.0 | 0.0 | 0.00 | 0.00 | 0.00 | 1014.9 | ||
| 20260906011245 | 31 | 189 | 3.2 | 3.2 | 0.00 | 0.00 | 0.00 | 62 | 1014.8 |
| 20260906010247 | 31 | 158 | 1.6 | 3.2 | 0.00 | 0.00 | 0.00 | 61 | 1014.7 |
| 20260906005250 | 31 | 218 | 3.2 | 4.8 | 0.00 | 0.00 | 0.00 | 60 | 1014.6 |
| 20260906004306 | 31 | 164 | 3.2 | 3.2 | 0.00 | 0.00 | 0.00 | 58 | 1014.6 |
| 20260906003253 | 32 | 154 | 3.2 | 4.8 | 0.00 | 0.00 | 0.00 | 58 | 1014.6 |
| 20260906002255 | 33 | 186 | 1.6 | 3.2 | 0.00 | 0.00 | 0.00 | 55 | 1014.6 |
| 20260906001257 | 33 | 203 | 0.0 | 1.6 | 0.00 | 18.75 | 0.00 | 52 | 1014.6 |
| 20260906000320 | 33 | 0.0 | 0.0 | 0.00 | 18.75 | 0.00 | 52 | 1014.6 | |
| 20260905235306 | 33 | 254 | 1.6 | 3.2 | 0.00 | 18.75 | 0.00 | 52 | 1014.6 |
| 20260905234246 | 33 | 270 | 1.6 | 4.8 | 0.00 | 18.75 | 0.00 | 54 | 1014.6 |
| 20260905233304 | 33 | 232 | 1.6 | 1.6 | 0.00 | 18.75 | 0.00 | 55 | 1014.5 |
| 20260905232305 | 33 | 289 | 3.2 | 6.4 | 0.00 | 18.75 | 0.00 | 54 | 1014.6 |
| 20260905231246 | 34 | 0.0 | 0.0 | 0.00 | 18.75 | 0.00 | 46 | 1014.6 | |
| 20260905230248 | 34 | 0.0 | 0.0 | 0.00 | 18.75 | 0.00 | 46 | 1014.7 | |
| 20260905225251 | 34 | 236 | 1.6 | 1.6 | 0.00 | 18.75 | 0.00 | 47 | 1014.8 |
| 20260905224253 | 33 | 203 | 6.4 | 11.3 | 0.00 | 18.75 | 0.00 | 54 | 1014.9 |
| 20260905223255 | 35 | 192 | 4.8 | 6.4 | 0.00 | 18.75 | 0.00 | 50 | 1014.8 |
| 20260905222251 | -17 | 0.0 | 0.0 | 0.00 | 18.75 | 0.00 | 1014.6 | ||
| 20260905221308 | 36 | 338 | 6.4 | 8.0 | 0.00 | 18.75 | 0.00 | 45 | 1014.5 |
| 20260905220301 | 37 | 140 | 3.2 | 6.4 | 0.00 | 18.75 | 0.00 | 43 | 1014.5 |
| 20260905215246 | 37 | 94 | 8.0 | 11.3 | 0.00 | 18.75 | 0.00 | 43 | 1014.4 |
| 20260905214248 | 38 | 150 | 8.0 | 9.7 | 0.00 | 18.75 | 0.00 | 40 | 1014.3 |
| 20260905213250 | 37 | 135 | 6.4 | 8.0 | 0.00 | 18.75 | 0.00 | 45 | 1014.4 |
| 20260905212313 | 37 | 187 | 11.3 | 12.9 | 0.00 | 18.75 | 0.00 | 45 | 1014.4 |
| 20260905211255 | 38 | 165 | 9.7 | 12.9 | 0.00 | 18.75 | 0.00 | 42 | 1014.6 |
| 20260905210257 | 40 | 148 | 9.7 | 12.9 | 0.00 | 18.75 | 0.00 | 40 | 1014.6 |
| 20260905205319 | 40 | 203 | 8.0 | 11.3 | 0.00 | 18.75 | 0.00 | 40 | 1014.6 |
| 20260905204301 | 39 | 175 | 9.7 | 11.3 | 0.00 | 18.75 | 0.00 | 41 | 1014.8 |
| 20260905203245 | 38 | 171 | 9.7 | 16.1 | 0.00 | 18.75 | 0.00 | 41 | 1014.8 |
| 20260905202247 | 38 | 150 | 4.8 | 9.7 | 0.00 | 18.75 | 0.00 | 41 | 1014.8 |
| 20260905201249 | 39 | 145 | 6.4 | 11.3 | 0.00 | 18.75 | 0.00 | 40 | 1014.9 |
| 20260905200251 | 40 | 131 | 6.4 | 8.0 | 0.00 | 18.75 | 0.00 | 39 | 1014.9 |
| 20260905195254 | 41 | 71 | 8.0 | 12.9 | 0.00 | 18.75 | 0.00 | 38 | 1014.9 |
| 20260905194250 | 40 | 3.2 | 6.4 | 0.00 | 18.75 | 0.00 | 41 | 1015.1 | |
| 20260905193246 | -17 | 123 | 8.0 | 9.7 | 0.00 | 18.75 | 0.00 | 1015.3 | |
| 20260905192340 | 39 | 92 | 8.0 | 11.3 | 0.00 | 18.75 | 0.00 | 42 | 1015.6 |
| 20260905191342 | -17 | 0.0 | 0.0 | 0.00 | 18.75 | 0.00 | 1015.7 | ||
| 20260905190249 | 40 | 75 | 8.0 | 9.7 | 0.00 | 18.75 | 0.00 | 40 | 1015.6 |
| 20260905185248 | -17 | 108 | 6.4 | 8.0 | 0.00 | 18.75 | 0.00 | 1015.6 | |
| 20260905184250 | -17 | 68 | 9.7 | 9.7 | 0.00 | 18.75 | 0.00 | 1016.1 | |
| 20260905183253 | -17 | 106 | 9.7 | 9.7 | 0.00 | 18.75 | 0.00 | 1016.1 | |
| 20260905182255 | 39 | 91 | 8.0 | 9.7 | 0.00 | 18.75 | 0.00 | 45 | 1016.4 |
| 20260905181257 | 38 | 22 | 3.2 | 6.4 | 0.00 | 18.75 | 0.00 | 48 | 1016.4 |
| 20260905180258 | 38 | 102 | 8.0 | 9.7 | 0.00 | 18.75 | 0.00 | 48 | 1016.4 |
| 20260905175301 | -17 | 158 | 3.2 | 3.2 | 0.00 | 18.75 | 0.00 | 1016.4 | |
| 20260905174245 | -17 | 0.0 | 0.0 | 0.00 | 18.75 | 0.00 | 1016.4 | ||
| 20260905173247 | 37 | 121 | 4.8 | 6.4 | 0.00 | 18.75 | 0.00 | 51 | 1016.4 |
| 20260905172330 | 37 | 169 | 3.2 | 4.8 | 0.00 | 18.75 | 0.00 | 52 | 1016.7 |
| 20260905171251 | 37 | 58 | 4.8 | 6.4 | 0.00 | 18.75 | 0.00 | 52 | 1016.7 |
| 20260905170248 | 37 | 343 | 3.2 | 4.8 | 0.00 | 18.75 | 0.00 | 53 | 1016.8 |
| 20260905165256 | 36 | 57 | 8.0 | 9.7 | 0.00 | 18.75 | 0.00 | 54 | 1016.9 |
| 20260905164258 | 36 | 203 | 1.6 | 3.2 | 0.00 | 18.75 | 0.00 | 55 | 1017.1 |
| 20260905163301 | 35 | 101 | 6.4 | 9.7 | 0.00 | 18.75 | 0.00 | 56 | 1017.2 |
| 20260905162322 | 35 | 98 | 4.8 | 6.4 | 0.00 | 18.75 | 0.00 | 56 | 1017.2 |
| 20260905161246 | 35 | 81 | 6.4 | 8.0 | 0.00 | 18.75 | 0.00 | 56 | 1017.4 |
| 20260905160249 | 35 | 135 | 3.2 | 4.8 | 0.00 | 18.75 | 0.00 | 57 | 1017.4 |
| 20260905155331 | 34 | 90 | 3.2 | 3.2 | 0.00 | 18.75 | 0.00 | 59 | 1017.4 |
| 20260905154255 | 34 | 82 | 4.8 | 6.4 | 0.00 | 18.75 | 0.00 | 59 | 1017.4 |
| 20260905153255 | 34 | 80 | 6.4 | 8.0 | 0.00 | 18.75 | 0.00 | 58 | 1017.4 |
| 20260905152257 | 33 | 90 | 4.8 | 8.0 | 0.00 | 18.75 | 0.00 | 60 | 1017.4 |
| 20260905151300 | 33 | 103 | 3.2 | 4.8 | 0.00 | 18.75 | 0.00 | 60 | 1017.4 |
| 20260905150302 | 32 | 53 | 6.4 | 8.0 | 0.00 | 18.75 | 0.00 | 62 | 1017.4 |
| 20260905145246 | 32 | 45 | 6.4 | 8.0 | 0.00 | 18.75 | 0.00 | 63 | 1017.2 |
| 20260905144248 | 32 | 60 | 4.8 | 8.0 | 0.00 | 18.75 | 0.00 | 64 | 1017.2 |
| 20260905143310 | 31 | 111 | 4.8 | 6.4 | 0.00 | 18.75 | 0.00 | 66 | 1017.2 |
| 20260905142246 | 31 | 81 | 1.6 | 4.8 | 0.00 | 18.75 | 0.00 | 69 | 1017.4 |
| 20260905141254 | 30 | 32 | 4.8 | 6.4 | 0.00 | 18.75 | 0.00 | 71 | 1017.4 |
| 20260905140256 | 30 | 61 | 1.6 | 3.2 | 0.00 | 18.75 | 0.00 | 71 | 1017.3 |
| 20260905135258 | 30 | 74 | 3.2 | 4.8 | 0.00 | 18.75 | 0.00 | 71 | 1017.2 |
| 20260905134302 | 29 | 45 | 0.0 | 3.2 | 0.00 | 18.75 | 0.00 | 72 | 1017.2 |
| 20260905133301 | 29 | 0.0 | 0.0 | 0.00 | 18.75 | 0.00 | 72 | 1017.1 | |
| 20260905132246 | 30 | 0.0 | 0.0 | 0.00 | 18.75 | 0.00 | 70 | 1017.2 | |
| 20260905131248 | 30 | 0.0 | 0.0 | 0.00 | 18.75 | 0.00 | 72 | 1017.1 | |
| 20260905130250 | 30 | 0.0 | 0.0 | 0.00 | 18.75 | 0.00 | 72 | 1017.0 | |
| 20260905125253 | 30 | 0.0 | 0.0 | 0.00 | 18.75 | 0.00 | 72 | 1017.0 | |
| 20260905124254 | 28 | 0.0 | 0.0 | 0.00 | 18.75 | 0.00 | 74 | 1016.9 | |
| 20260905123256 | 28 | 0.0 | 0.0 | 0.00 | 18.75 | 0.00 | 76 | 1016.7 | |
| 20260905122259 | 27 | 0.0 | 0.0 | 0.00 | 18.75 | 0.00 | 80 | 1016.7 | |
| 20260905121255 | 26 | 0.0 | 0.0 | 0.00 | 18.75 | 0.00 | 82 | 1016.6 | |
| 20260905120245 | 25 | 0.0 | 0.0 | 0.00 | 18.75 | 0.00 | 84 | 1016.5 | |
| 20260905115328 | 26 | 0.0 | 0.0 | 0.00 | 18.75 | 0.00 | 84 | 1016.5 | |
| 20260905114250 | 25 | 0.0 | 0.0 | 0.00 | 18.75 | 0.00 | 84 | 1016.2 | |
| 20260905113312 | 25 | 0.0 | 0.0 | 0.00 | 18.75 | 0.00 | 85 | 1016.2 | |
| 20260905112254 | 25 | 0.0 | 0.0 | 0.00 | 18.75 | 0.00 | 85 | 1016.1 | |
| 20260905111311 | 25 | 0.0 | 0.0 | 0.00 | 18.75 | 0.00 | 84 | 1016.0 | |
| 20260905110253 | 25 | 0.0 | 0.0 | 0.00 | 18.75 | 0.00 | 83 | 1016.0 | |
| 20260905105255 | 25 | 0.0 | 0.0 | 0.00 | 18.75 | 0.00 | 83 | 1016.1 | |
| 20260905104257 | 26 | 0.0 | 0.0 | 0.00 | 18.75 | 0.00 | 83 | 1016.1 | |
| 20260905103320 | 26 | 0.0 | 0.0 | 0.00 | 18.75 | 0.00 | 83 | 1016.0 | |
| 20260905102316 | 26 | 0.0 | 0.0 | 0.00 | 18.75 | 0.00 | 83 | 1016.2 | |
| 20260905101339 | 26 | 0.0 | 0.0 | 0.00 | 18.75 | 0.00 | 84 | 1016.2 | |
| 20260905100341 | 26 | 0.0 | 0.0 | 0.00 | 18.75 | 0.00 | 84 | 1016.1 | |
| 20260905095305 | 26 | 0.0 | 0.0 | 0.00 | 18.75 | 0.00 | 83 | 1016.1 | |
| 20260905094247 | 26 | 0.0 | 0.0 | 0.00 | 18.75 | 0.00 | 82 | 1016.1 | |
| 20260905093249 | 26 | 0.0 | 0.0 | 0.00 | 18.75 | 0.00 | 82 | 1016.1 | |
| 20260905092251 | 26 | 0.0 | 0.0 | 0.00 | 18.75 | 0.00 | 81 | 1016.2 | |
| 20260905091247 | 26 | 0.0 | 0.0 | 0.00 | 18.75 | 0.00 | 81 | 1016.2 | |
| 20260905090255 | 27 | 0.0 | 0.0 | 0.00 | 18.75 | 0.00 | 81 | 1016.2 | |
| 20260905085317 | 27 | 0.0 | 0.0 | 0.00 | 18.75 | 0.00 | 82 | 1016.2 | |
| 20260905084259 | 27 | 0.0 | 0.0 | 0.00 | 18.75 | 0.00 | 82 | 1016.4 | |
| 20260905083303 | 27 | 0.0 | 0.0 | 0.00 | 18.75 | 0.00 | 81 | 1016.4 | |
| 20260905082343 | 27 | 0.0 | 0.0 | 0.00 | 18.75 | 0.00 | 81 | 1016.4 | |
| 20260905081307 | 27 | 0.0 | 0.0 | 0.00 | 18.75 | 0.00 | 80 | 1016.5 | |
| 20260905080249 | 27 | 0.0 | 0.0 | 0.00 | 18.75 | 0.00 | 80 | 1016.5 | |
| 20260905075251 | 27 | 0.0 | 0.0 | 0.00 | 18.75 | 0.00 | 80 | 1016.5 | |
| 20260905074253 | 27 | 0.0 | 0.0 | 0.00 | 18.75 | 0.00 | 79 | 1016.5 | |
| 20260905073255 | 27 | 0.0 | 0.0 | 0.00 | 18.75 | 0.00 | 78 | 1016.6 | |
| 20260905072257 | 27 | 0.0 | 0.0 | 0.00 | 18.75 | 0.00 | 78 | 1016.7 | |
| 20260905071259 | 27 | 0.0 | 0.0 | 0.00 | 18.75 | 0.00 | 77 | 1016.7 | |
| 20260905070255 | 27 | 0.0 | 0.0 | 0.00 | 18.75 | 0.00 | 77 | 1016.7 | |
| 20260905065245 | 28 | 0.0 | 0.0 | 0.00 | 18.75 | 0.00 | 77 | 1016.6 | |
| 20260905064247 | 27 | 0.0 | 0.0 | 0.00 | 18.75 | 0.00 | 77 | 1016.6 | |
| 20260905063251 | 28 | 0.0 | 0.0 | 0.00 | 18.75 | 0.00 | 76 | 1016.7 | |
| 20260905062251 | 28 | 0.0 | 0.0 | 0.00 | 18.75 | 0.00 | 76 | 1016.9 | |
| 20260905061253 | 28 | 0.0 | 0.0 | 0.00 | 18.75 | 0.00 | 76 | 1016.9 | |
| 20260905060336 | 28 | 0.0 | 0.0 | 0.00 | 18.75 | 0.00 | 76 | 1016.9 | |
| 20260905055258 | 28 | 0.0 | 0.0 | 0.00 | 18.75 | 0.00 | 75 | 1016.9 | |
| 20260905054320 | 28 | 0.0 | 0.0 | 0.00 | 18.75 | 0.00 | 73 | 1016.9 | |
| 20260905053302 | 28 | 0.0 | 0.0 | 0.00 | 18.75 | 0.00 | 73 | 1016.9 | |
| 20260905052245 | 28 | 0.0 | 0.0 | 0.00 | 18.75 | 0.00 | 73 | 1016.7 | |
| 20260905051248 | 28 | 0.0 | 0.0 | 0.00 | 18.75 | 0.00 | 72 | 1016.7 | |
| 20260905050250 | 28 | 0.0 | 0.0 | 0.00 | 18.75 | 0.00 | 72 | 1016.6 | |
| 20260905045252 | 28 | 0.0 | 0.0 | 0.00 | 18.75 | 18.75 | 72 | 1016.6 | |
| 20260905044254 | 28 | 0.0 | 0.0 | 0.00 | 18.75 | 18.75 | 72 | 1016.7 | |
| 20260905043256 | 28 | 0.0 | 0.0 | 0.00 | 18.75 | 18.75 | 72 | 1016.7 | |
| 20260905042252 | 29 | 0.0 | 0.0 | 0.00 | 18.75 | 18.75 | 72 | 1016.6 | |
| 20260905041248 | 29 | 0.0 | 0.0 | 0.00 | 18.75 | 18.75 | 71 | 1016.5 | |
| 20260905040322 | 29 | 0.0 | 0.0 | 0.00 | 18.75 | 18.75 | 70 | 1016.5 | |
| 20260905035246 | 30 | 0.0 | 0.0 | 0.00 | 18.75 | 18.75 | 70 | 1016.5 | |
| 20260905034248 | 30 | 0.0 | 0.0 | 0.00 | 18.75 | 18.75 | 69 | 1016.5 | |
| 20260905033250 | 30 | 0.0 | 0.0 | 0.00 | 18.75 | 18.75 | 69 | 1016.6 | |
| 20260905032252 | 30 | 0.0 | 0.0 | 0.00 | 18.75 | 18.75 | 67 | 1016.7 | |
| 20260905031255 | 30 | 0.0 | 0.0 | 0.00 | 18.75 | 18.75 | 67 | 1016.7 | |
| 20260905030257 | 30 | 0.0 | 0.0 | 0.00 | 18.75 | 18.75 | 66 | 1016.7 | |
| 20260905025259 | 31 | 0.0 | 0.0 | 0.00 | 18.75 | 18.75 | 66 | 1016.7 | |
| 20260905024301 | 31 | 0.0 | 0.0 | 0.00 | 18.75 | 18.75 | 65 | 1016.7 | |
| 20260905023245 | 31 | 0.0 | 0.0 | 0.00 | 18.75 | 18.75 | 64 | 1016.5 |